Location: Newark
(41.6500°N, 71.4833°W)
Time: 12:59:29
(UTC+00:00)

Transit 2A Rocket - Pass Details

Date: 01 February 2020
Orbit: 591 x 912 km, 66.7° (Epoch: 24 February)

Event Time Altitude Azimuth Distance (km) Brightness Sun altitude
Rises 09:15:33 0° 242° (WSW) 2,823 - -30.6°
Reaches altitude 10° 09:18:08 10° 257° (WSW) 1,919 - -30.1°
Maximum altitude 09:21:36 24° 311° (NW) 1,261 - -29.5°
Drops below altitude 10° 09:25:09 10° 6° (N) 1,961 - -28.8°
Exits shadow 09:25:38 - 10° (N) 2,115 7.4 -28.7°
Sets 09:27:50 0° 21° (NNE) 2,901 8.3 -28.3°
